Stations météo

réclame
Mon MeteoGroup
San Sebastian/Fuenterrabia, Espagne (8029): Température de l'air & dewpoint: 17.10.2017 09:00:00 - 23.10.2017 09:00:00 (CEST)San Sebastian/Fuenterrabia, Espagne (8029): Vitesse du vent: 17.10.2017 09:00:00 - 23.10.2017 09:00:00 (CEST)San Sebastian/Fuenterrabia, Espagne (8029): Direction du vent: 17.10.2017 09:00:00 - 23.10.2017 09:00:00 (CEST)San Sebastian/Fuenterrabia, Espagne (8029): reduced air pressure: 17.10.2017 09:00:00 - 23.10.2017 09:00:00 (CEST)San Sebastian/Fuenterrabia, Espagne (8029): visibility: 17.10.2017 09:00:00 - 23.10.2017 09:00:00 (CEST)
Date & Time tt [°C] td [°C] ff [km/h] ff [knt] dd ppp [hPa] vv [km]
23.10.2017 09:00:00 11,0 11,0 5 3 SSE - 10
23.10.2017 08:00:00 10,8 10,2 5 3 SSE 1027,8 10
23.10.2017 07:00:00 11,0 11,0 4 2 - - 10
23.10.2017 06:00:00 12,0 11,0 5 3 SSE - 10
23.10.2017 05:00:00 12,0 11,0 5 3 SE - 10
23.10.2017 04:00:00 13,0 12,0 8 4 SSE - 10
23.10.2017 03:00:00 13,0 12,0 8 4 SSE - 10
23.10.2017 02:00:00 13,0 12,0 5 3 SSE - 10
23.10.2017 01:00:00 13,0 13,0 8 4 SSE - 10
23.10.2017 00:00:00 13,0 13,0 11 6 S - 10
22.10.2017 23:00:00 14,0 13,0 5 3 SSE - 10
22.10.2017 22:00:00 14,0 13,0 8 4 S - 10
22.10.2017 21:00:00 13,0 13,0 8 4 SSW - 10
22.10.2017 20:00:00 13,6 12,5 9 5 SW 1029,6 8
22.10.2017 19:00:00 15,0 13,0 5 3 - - 7
22.10.2017 18:00:00 16,0 13,0 15 8 WSW - 10
22.10.2017 17:00:00 15,8 12,4 8 4 SW 1029,0 10
22.10.2017 16:00:00 16,0 13,0 13 7 WSW - 10
22.10.2017 15:00:00 15,0 13,0 13 7 SW - 10
22.10.2017 14:00:00 14,8 12,1 9 5 WSW 1029,6 10
22.10.2017 13:00:00 15,0 13,0 11 6 WSW - 10
22.10.2017 12:00:00 14,0 13,0 9 5 SW - 10
22.10.2017 11:00:00 14,4 12,1 9 5 WSW 1029,6 10
22.10.2017 10:00:00 13,0 12,0 13 7 SW - 10
22.10.2017 09:00:00 13,0 12,0 11 6 SW - 10
22.10.2017 08:00:00 12,4 11,3 11 6 SSW 1029,0 4,8
22.10.2017 07:00:00 13,0 12,0 9 5 WSW - 10
22.10.2017 06:00:00 13,0 13,0 15 8 SW - 10
22.10.2017 05:00:00 13,0 12,0 15 8 SW - 9
22.10.2017 04:00:00 14,0 12,0 16 9 WSW - 8
22.10.2017 03:00:00 14,0 13,0 8 4 SW - 10
22.10.2017 02:00:00 14,0 12,0 11 6 SW - 10
22.10.2017 01:00:00 14,0 13,0 11 6 SW - 9
22.10.2017 00:00:00 14,0 13,0 13 7 SW - 6
21.10.2017 23:00:00 15,0 12,0 13 7 SW - 8
21.10.2017 22:00:00 16,0 12,0 8 4 SW - 10
21.10.2017 21:00:00 16,0 11,0 9 5 WSW - 10
21.10.2017 20:00:00 16,4 9,6 5 3 - 1027,1 10
21.10.2017 19:00:00 18,0 9,0 13 7 WNW - 10
21.10.2017 18:00:00 18,0 12,0 5 3 W - 10
21.10.2017 17:00:00 17,6 10,2 22 12 W 1025,9 10
21.10.2017 16:00:00 18,0 13,0 13 7 W - 10
21.10.2017 15:00:00 18,0 13,0 11 6 WSW - 10
21.10.2017 14:00:00 17,5 11,3 13 7 WSW 1024,7 10
21.10.2017 13:00:00 17,0 14,0 13 7 SW - 10
21.10.2017 12:00:00 17,0 15,0 13 7 SW - 10
21.10.2017 11:00:00 15,0 13,5 13 7 S 1024,6 10
21.10.2017 10:00:00 15,0 14,0 22 12 WNW - 2,0
21.10.2017 09:00:00 17,0 15,0 11 6 W - 5
21.10.2017 08:00:00 17,0 14,3 21 11 SW 1022,1 10
21.10.2017 07:00:00 18,0 16,0 9 5 WSW - 6
21.10.2017 06:00:00 19,0 16,0 16 9 W - 10
21.10.2017 05:00:00 20,0 17,0 26 14 W - 9
21.10.2017 04:00:00 22,0 14,0 15 8 SW - 10
21.10.2017 03:00:00 22,0 14,0 5 3 S - 10
21.10.2017 02:00:00 22,0 13,0 16 9 SSW - 10
21.10.2017 01:00:00 22,0 12,0 9 5 SW - 10
21.10.2017 00:00:00 21,0 13,0 5 3 S - 10
20.10.2017 23:00:00 18,0 14,0 0 0 N - 10
20.10.2017 22:00:00 17,0 15,0 2 1 - - 10
20.10.2017 21:00:00 17,0 16,0 2 1 - - 10
20.10.2017 20:00:00 19,0 16,4 2 1 SSW 1016,3 10
20.10.2017 19:00:00 21,0 19,0 2 1 - - 10
20.10.2017 18:00:00 22,0 18,0 4 2 - - 10
20.10.2017 17:00:00 22,2 17,3 9 5 NNE 1016,6 10
20.10.2017 16:00:00 22,0 17,0 9 5 NNE - 10
20.10.2017 15:00:00 22,0 16,0 8 4 N - 10
20.10.2017 14:00:00 22,0 12,0 5 3 NNE 1017,3 10
20.10.2017 13:00:00 21,0 13,0 4 2 - - 10
20.10.2017 12:00:00 18,0 14,0 4 2 - - 10
20.10.2017 11:00:00 16,4 12,8 8 4 SSW 1017,8 10
20.10.2017 10:00:00 16,0 13,0 4 2 - - 10
20.10.2017 09:00:00 16,0 12,0 4 2 SSE - 10
20.10.2017 08:00:00 15,0 10,8 5 3 S 1016,3 10
20.10.2017 07:00:00 15,0 13,0 2 1 - - 10
20.10.2017 06:00:00 15,0 12,0 8 4 SSE - 10
20.10.2017 05:00:00 16,0 12,0 4 2 - - 10
20.10.2017 04:00:00 15,0 11,0 2 1 - - 10
20.10.2017 03:00:00 16,0 13,0 4 2 - - 10
20.10.2017 02:00:00 15,0 13,0 2 1 - - 10
20.10.2017 01:00:00 15,0 13,0 0 0 N - 10
20.10.2017 00:00:00 15,0 14,0 4 2 - - 10
19.10.2017 23:00:00 14,0 13,0 2 1 - - 9
19.10.2017 22:00:00 15,0 14,0 4 2 SW - 7
19.10.2017 21:00:00 16,0 14,0 5 3 S - 10
19.10.2017 20:00:00 17,1 13,4 4 2 - 1012,1 10
19.10.2017 19:00:00 18,0 14,0 5 3 E - 10
19.10.2017 18:00:00 19,0 14,0 5 3 NNE - 10
19.10.2017 17:00:00 19,2 12,7 8 4 NE 1011,1 10
19.10.2017 16:00:00 20,0 13,0 8 4 N - 10
19.10.2017 15:00:00 20,0 13,0 8 4 N - 10
19.10.2017 14:00:00 19,2 12,0 5 3 NNW 1011,9 10
19.10.2017 13:00:00 19,0 13,0 2 1 - - 10
19.10.2017 12:00:00 19,0 13,0 9 5 SW - 10
19.10.2017 11:00:00 17,2 12,7 8 4 SSW 1012,0 10
19.10.2017 10:00:00 16,0 14,0 5 3 WSW - 10
19.10.2017 09:00:00 15,0 13,0 13 7 WSW - 10
19.10.2017 08:00:00 14,5 12,5 11 6 SW 1011,4 10
19.10.2017 07:00:00 15,0 14,0 9 5 SW - 10
19.10.2017 06:00:00 15,0 14,0 11 6 SSW - 10
19.10.2017 05:00:00 15,0 14,0 9 5 WSW - 10
19.10.2017 04:00:00 15,0 15,0 5 3 SW - 9
19.10.2017 03:00:00 15,0 15,0 5 3 SW - 10
19.10.2017 02:00:00 15,0 15,0 5 3 WSW - 10
19.10.2017 01:00:00 15,0 15,0 8 4 SSW - 8
19.10.2017 00:00:00 15,0 15,0 9 5 SW - 10
18.10.2017 23:00:00 15,0 15,0 9 5 SW - 10
18.10.2017 22:00:00 15,0 15,0 8 4 WSW - 10
18.10.2017 21:00:00 15,0 15,0 2 1 - - 10
18.10.2017 20:00:00 15,2 13,7 2 1 - 1010,0 10
18.10.2017 19:00:00 16,0 15,0 0 0 N - 10
18.10.2017 18:00:00 16,0 15,0 4 2 SSW - 10
18.10.2017 17:00:00 15,2 13,6 0 0 N 1009,8 10
18.10.2017 16:00:00 16,0 15,0 15 8 W - 10
18.10.2017 15:00:00 17,0 16,0 21 11 WNW - 7
18.10.2017 14:00:00 19,8 16,3 8 4 N 1008,6 10
18.10.2017 13:00:00 20,0 18,0 9 5 NE - 10
18.10.2017 12:00:00 20,0 17,0 2 1 - - 10
18.10.2017 11:00:00 19,4 15,3 5 3 E 1010,5 10
18.10.2017 10:00:00 20,0 16,0 5 3 SW - 10
18.10.2017 09:00:00 18,0 16,0 0 0 N - 10
18.10.2017 08:00:00 17,3 14,0 2 1 - 1011,0 10
18.10.2017 07:00:00 18,0 15,0 2 1 - - 10
18.10.2017 06:00:00 18,0 16,0 2 1 - - 10
18.10.2017 05:00:00 20,0 16,0 8 4 - - 10
18.10.2017 04:00:00 20,0 19,0 5 3 NNE - 6
18.10.2017 03:00:00 20,0 18,0 2 1 - - 7
18.10.2017 02:00:00 20,0 19,0 4 2 - - 4,5
18.10.2017 01:00:00 - - 0 0 N - 5
18.10.2017 00:00:00 - - 4 2 - - 6
17.10.2017 23:00:00 - - 0 0 N - 10
17.10.2017 22:00:00 - - 4 2 - - 10
17.10.2017 21:00:00 23,0 13,0 4 2 - - 10
17.10.2017 20:00:00 24,7 9,8 13 7 SSW 1014,1 10
17.10.2017 19:00:00 26,0 9,0 16 9 S - 10
17.10.2017 18:00:00 26,0 11,0 5 3 SSW - 10
17.10.2017 17:00:00 26,4 9,3 13 7 SSE 1013,8 10
17.10.2017 16:00:00 27,0 10,0 22 12 S - 10
17.10.2017 15:00:00 26,0 11,0 31 17 S - 10
17.10.2017 14:00:00 27,0 10,2 21 11 SSE 1015,6 10
17.10.2017 13:00:00 26,0 11,0 18 10 SSE - 10
17.10.2017 12:00:00 25,0 12,0 11 6 S - 10
17.10.2017 11:00:00 23,4 10,1 9 5 - 1017,4 10
17.10.2017 10:00:00 24,0 12,0 13 7 S - 10
17.10.2017 09:00:00 24,0 10,0 22 12 SSE - 10

tt = Température de l'air
td = dewpoint
ff = Vitesse du vent
dd = Direction du vent
ppp = reduced air pressure
vv = visibility

stations d'obs. à proximité